KAITUO 1B
1 40912U 15049P   18007.24754568 +.00000946 +00000-0 +49265-4 0  9991
2 40912 097.4506 016.8977 0014428 206.7671 282.0805 15.18353285127247
TIANWANG 1C (TW-1C)
1 40926U 15051B   18007.55105753  .00005903  00000-0  12042-3 0  9999
2 40926  97.2051  50.7431 0011679 136.8668 359.8389 15.46518483128460
TIANWANG 1B (TW-1B)
1 40927U 15051C   18007.51112262  .00005636  00000-0  11975-3 0  9996
2 40927  97.2137  50.6222 0011268 147.5814 343.5122 15.45349537128386
TIANWANG 1A (TW-1A)
1 40928U 15051D   18007.53706942  .00002504  00000-0  69590-4 0  9991
2 40928  97.2044  44.6260 0012090 173.0439 330.5230 15.37741264128087
LAPAN A2
1 40931U 15052B   18007.03110118  .00000657  00000-0  24344-5 0  9991
2 40931   5.9959 219.2804 0013249 251.9506 107.9178 14.76561258123148
LQSAT
1 40958U 15057A   18007.44626492  .00000025  00000-0  11630-4 0  9999
2 40958  97.9595  83.9845 0019331 129.2499 231.0431 14.73010697121187
CHUBUSAT 2
1 41338U 16012B   18007.07006158 +.00000294 +00000-0 +16271-4 0  9998
2 41338 031.0029 257.2371 0014035 277.5265 082.3776 14.99900934103623
CHUBUSAT 3
1 41339U 16012C   18007.10424098 +.00000302 +00000-0 +16810-4 0  9999
2 41339 031.0089 255.8472 0013809 284.5714 075.3393 15.00093958103619
OUFTI-1
1 41458U 16025C   18007.07721963  .00001488  00000-0  82508-4 0  9995
2 41458  98.1599  61.1819 0170513 328.0690  31.0290 15.04131571 93214
E-STAR-2
1 41459U 16025D   18007.19059799  .00001331  00000-0  74658-4 0  9994
2 41459  98.1607  61.2001 0171185 328.4152  30.6893 15.03907224 93222
AAUSAT 4
1 41460U 16025E   18007.37803390  .00000877  00000-0  50535-4 0  9992
2 41460  98.1528  61.6752 0163132 324.7601  34.2899 15.05131698 93293
NUSAT 1
1 41557U 16033B   18007.21118407 +.00001061 +00000-0 +41635-4 0  9996
2 41557 097.4488 091.6692 0014169 013.6309 346.5310 15.27892781089571
BEESAT 4
1 41619U 16040W   18007.04621005  .00001172  00000-0  54870-4 0  9995
2 41619  97.4377  72.2806 0013356  77.6276 282.6454 15.21639172 73589
PRATHAM
1 41783U 16059A   18007.40261593  .00000055  00000-0  20142-4 0  9993
2 41783  98.1413  71.3724 0032560 239.1273 120.6725 14.62892782 68453
ALSAT 1N
1 41789U 16059G   18007.42647259  .00000101  00000-0  28326-4 0  9992
2 41789  98.1423  72.2971 0027124 231.6627 128.2142 14.64117472 68493
NAYIF 1
1 42017U 17008BX  18007.11941474 +.00001321 +00000-0 +57659-4 0  9990
2 42017 097.4705 073.0026 0005557 214.3523 145.7355 15.23920867049532
LILACSAT-1
1 42725U 98067ME  18007.52762058  .00011882  00000-0  13629-3 0  9995
2 42725  51.6381  93.0732 0005443 350.6738   9.4154 15.62544353 35344
MAX VALIER SAT
1 42778U 17036P   18007.21028407 +.00000835 +00000-0 +40784-4 0  9998
2 42778 097.4267 069.4295 0011140 273.5261 086.4700 15.20960947030037
